Regional Weather Roundup
Issued by NWS

Home | Current Version | Previous Version | Graphics & Text | Print | Product List | Glossary On
Versions: 1 2 3 4 5 6 7 8 9 10 11 12 13 14 15 16 17 18 19 20 21 22 23 24 25 26 27 28 29 30 31 32 33 34 35 36 37 38 39 40 41 42 43 44 45 46 47 48 49 50
880
ASUS43 KDMX 231201
RWRIA

WEATHER ROUNDUP FOR IOWA
NATIONAL WEATHER SERVICE DES MOINES IA
700 AM CDT TUE MAY 23 2017

NOTE: "FAIR" INDICATES FEW OR NO CLOUDS BELOW 12,000 FEET WITH NO
SIGNIFICANT WEATHER AND/OR OBSTRUCTIONS TO VISIBILITY.

* - THESE STATIONS ARE NOT NWS STATIONS...THUS NOT UNDER NWS
QUALITY CONTROL.  THEY ALSO DO NOT REPORT WEATHER SUCH
AS PRECIPITATION OR FOG.

IAZ001>003-012>014-020>022-031>034-043>046-231300-
   NORTHWEST IOWA

CITY           SKY/WX    TMP DP  RH WIND       PRES   REMARKS
CARROLL *      SUNNY     50  46  87 NW12G17   29.86S
CHEROKEE *     CLOUDY    46  44  91 W6        29.88R
DENISON *      SUNNY     48  45  87 NW7       29.90S
LE MARS *      CLOUDY    48  45  87 W3        29.90S
ORANGE CITY *  CLOUDY    46  45  93 NW8       29.88S
SHELDON *      CLOUDY    48  45  87 NW12        N/A
SIOUX CITY     CLOUDY    48  45  89 W7        29.91S
6HR MIN TEMP:  44; 6HR MAX TEMP:  50;

SPENCER        CLOUDY    48  45  89 W9        29.86R
6HR MIN TEMP:  47; 6HR MAX TEMP:  51; 6HR PCP: TRACE;

STORM LAKE *   MOSUNNY   46  43  87 NW14      29.87R
$$

IAZ055>058-069>071-079>083-090>094-231300-
   SOUTHWEST IOWA

CITY           SKY/WX    TMP DP  RH WIND       PRES   REMARKS
ATLANTIC *     MOSUNNY   48  46  93 NW10      29.88S
AUDUBON *      SUNNY     48  45  87 NW5       29.88R
CLARINDA *     CLOUDY    52  46  82 NW7       29.92R
COUNCIL BLFS * CLEAR     48  46  93 NW9       29.90S
CRESTON *      CLOUDY    48  46  93 NW9       29.88S
HARLAN  *      SUNNY     48  46  93 NW14G20   29.92S
LAMONI         CLOUDY    51  49  92 NW9       29.86R
6HR MIN TEMP:  50; 6HR MAX TEMP:  53;

RED OAK *      MOSUNNY   50  46  87 NW9       29.90R
SHENANDOAH *   MOCLDY    50  46  87 NW6       29.91S
$$

IAZ047>049-059>061-072>074-084-231300-
   CENTRAL IOWA

CITY           SKY/WX    TMP DP  RH WIND       PRES   REMARKS
AMES           MOSUNNY   49  48  97 NW7       29.84R
6HR MIN TEMP:  49; 6HR MAX TEMP:  52;

ANKENY *       CLOUDY    50  48  93 MISG      29.85S
BOONE *        MOSUNNY   50  50 100 NW8       29.84R
DES MOINES     CLOUDY    52  49  89 NW7       29.85R
6HR MIN TEMP:  52; 6HR MAX TEMP:  55;

GRINNELL*      CLOUDY    51  50  94 NW6       29.83S
MARSHALLTOWN   CLOUDY    51  49  92 NW7       29.81F
6HR MIN TEMP:  48; 6HR MAX TEMP:  54;

NEWTON *       CLOUDY    52  50  93 NW9G15    29.83R
PELLA *        CLOUDY    53  50  92 NW9       29.84S
PERRY *          N/A     48  47  96 W8        29.86S
$$

IAZ004>006-015-016-023>025-035-036-231300-
   NORTH CENTRAL IOWA

CITY           SKY/WX    TMP DP  RH WIND       PRES   REMARKS
ALGONA *       CLOUDY    48  46  93 N12       29.84S
CLARION *      PTSUNNY   50  50 100 NW10      29.83S
ESTHERVILLE    CLOUDY    47  46  97 NW8       29.84R
6HR MIN TEMP:  47; 6HR MAX TEMP:  50; 6HR PCP:  0.05;

FORT DODGE *   CLOUDY    50  46  87 W5        29.85S
MASON CITY     CLOUDY    50  47  89 NW10      29.83R
6HR MIN TEMP:  49; 6HR MAX TEMP:  52; 6HR PCP:  0.04;

FOREST CITY *  CLOUDY    50  43  76 NW8       29.83R
WEBSTER CITY * CLOUDY    50  48  93 NW10      29.82S
IOWA FALLS *   CLOUDY    51  50  94 NW5       29.84S
$$

IAZ007>011-017>019-026>030-037>042-050>054-066-231300-
   NORTHEAST IOWA

CITY           SKY/WX    TMP DP  RH WIND       PRES   REMARKS
CEDAR RAPIDS   CLOUDY    50  50 100 W6        29.79R FOG
6HR MIN TEMP:  48; 6HR MAX TEMP:  54;

CHARLES CITY * LGT RAIN  50  50 100 W8        29.81R
CLINTON *      CLOUDY    54  52  93 SW6       29.80S
DECORAH *      CLOUDY    50  50 100 CALM      29.77R
DUBUQUE        CLOUDY    53  52  96 W10       29.78R FOG
6HR MIN TEMP:  51; 6HR MAX TEMP:  54;

MONTICELLO *   CLOUDY    52  52 100 SW3       29.78S
OELWEIN *      PTSUNNY   50  50 100 NW8       29.79F FOG
WATERLOO       CLOUDY    51  47  86 NW9       29.80R
6HR MIN TEMP:  48; 6HR MAX TEMP:  54;

$$

IAZ064-065-067-068-078-231300-
   EAST CENTRAL IOWA

CITY           SKY/WX    TMP DP  RH WIND       PRES   REMARKS
DAVENPORT      PTSUNNY   55  52  89 SW8       29.79F
6HR MIN TEMP:  53; 6HR MAX TEMP:  57;

IOWA CITY      PTSUNNY   53  50  89 CALM      29.81S
6HR MIN TEMP:  51; 6HR MAX TEMP:  56;

MT. PLEASANT * CLOUDY    55  55  97 W7        29.80F
MUSCATINE *    CLOUDY    57  52  82 W8        29.81R
QUAD CITIES      N/A     56  53  90 SW5       29.79F
6HR MIN TEMP:  54; 6HR MAX TEMP:  58;

$$

IAZ062-063-075>077-085>089-095>099-231300-
   SOUTHEAST IOWA

CITY           SKY/WX    TMP DP  RH WIND       PRES   REMARKS
BURLINGTON     CLOUDY    57  56  96 S7        29.81R
6HR MIN TEMP:  56; 6HR MAX TEMP:  58;

FAIRFIELD *    PTSUNNY   52  52 100 W7        29.80S
FORT MADISON * CLOUDY    57  55  94 SW7       29.82S
KEOKUK *       CLOUDY    57  55  94 S5        29.81S
OSKALOOSA *    CLOUDY    51  50  97 NW10      29.82S
OTTUMWA        MOSUNNY   52  52 100 W9        29.81R
6HR MIN TEMP:  51; 6HR MAX TEMP:  56;

WASHINGTON *   CLOUDY    52  52 100 SW7       29.81S
$$

ABBREVIATIONS USED IN REMARKS
   TC - TEMPERATURES IN CELSIUS
  WCI - WIND CHILL INDEX
   HX - HEAT INDEX
  VSB - VISIBILITY
$$





USA.gov is the U.S. government's official web portal to all federal, state and local government web resources and services.